Location: Melbourne
(37.8666°S, 145.1333°E)
Time: 08:31:22
(UTC+10:00)

Iridium 72 - Visible Passes

Search period start: 26 September 2016 00:00
Search period end: 06 October 2016 01:00
Orbit: 776 x 779 km, 86.4° (Epoch: 25 September)

Date Brightness Start Highest point End Pass type
(mag) Time Alt. Az. Time Alt. Az. Time Alt. Az.
26 Sep 8.6 22:41:26 10° SSW 22:41:30 10° SSW 22:41:30 10° SSW visible
27 Sep 8.2 22:07:32 10° S 22:08:18 14° S 22:08:18 14° S visible
28 Sep 7.8 21:33:58 10° S 21:35:08 17° S 21:35:08 17° S visible
29 Sep 7.7 21:00:44 10° SSE 21:01:57 16° SSE 21:01:57 16° SSE visible
29 Sep 8.4 22:42:00 10° SSW 22:42:27 12° SW 22:42:27 12° SW visible
30 Sep 7.7 20:28:00 10° SSE 20:28:49 13° SE 20:28:49 13° SE visible
30 Sep 7.9 22:07:47 10° SSW 22:09:18 19° SSW 22:09:18 19° SSW visible
01 Oct 7.4 21:34:01 10° S 21:36:10 25° S 21:36:10 25° S visible
02 Oct 7.0 22:00:35 10° S 22:03:02 27° SSE 22:03:02 27° SSE visible
02 Oct 8.4 23:42:53 10° SW 23:43:32 12° SW 23:43:32 12° SW visible
03 Oct 7.1 21:27:31 10° SSE 21:29:57 22° SE 21:29:57 22° SE visible
03 Oct 7.8 23:08:12 10° SSW 23:10:27 21° SW 23:10:27 21° SW visible
04 Oct 7.4 20:55:07 10° SE 20:56:52 14° ESE 20:56:52 14° ESE visible
04 Oct 7.0 22:34:12 10° SSW 22:37:21 34° SSW 22:37:21 34° SSW visible
05 Oct 6.2 22:00:34 10° S 22:04:18 47° S 22:04:18 47° S visible
